Tracking 25701 objects as of 4-Jul-2022
HD Live streaming from Space Station
objects crossing your sky now

FENGYUN 1C DEB

Track FENGYUN 1C DEB now!
10-day predictions


NORAD ID: 30454
Int'l Code: 1999-025AFR
Perigee: 752.0 km
Apogee: 1,067.3 km
Inclination: 98.1 °
Period: 103.0 minutes
Semi major axis: 7280 km
RCS: 0.027 m2 (small)
Launch date: May 10, 1999
Source: People's Republic of China (PRC)
Launch site: Taiyaun Space Center, China (TSC)

Note: This is SATELLITE DEBRIS
aabbcc
Your satellite tracking list
Your tracking list is empty




NASA's NSSDC Master Catalog

Two Line Element Set (TLE):
1 30454U 99025AFR 22184.73427741  .00001681  00000-0  10011-2 0  9994
2 30454  98.1493 268.3541 0216549 189.4002 323.9087 13.97476767782974
Source of the keplerian elements: AFSPC